Weather History for Pamplona, Spain

Change the Weather History Date:

Monday, December 31, 2012

  Actual Average Record
Temperature  
Mean Temperature 39 °F -  
Max Temperature 50 °F 46 °F 57 °F (2006)
Min Temperature 28 °F 35 °F 28 °F (2012)
Degree Days  
Heating Degree Days 26    
Moisture  
Dew Point 35 °F    
Average Humidity 90    
Maximum Humidity 100    
Minimum Humidity 66    
Precipitation  
Precipitation 0.00 in - - ()
Sea Level Pressure  
Sea Level Pressure 30.19 in    
Wind  
Wind Speed 2 mph ()    
Max Wind Speed 13 mph    
Max Gust Speed -    
Visibility 3.9 miles    
Events Fog , Rain    
Averages and records for this station are not official NWS values.
T = Trace of Precipitation, MM = Missing Value Source: Averaged Metar Reports

Daily Weather History Graph

Daily Weather History Graph

Search for Another Location

Airport:

Trip Planner

Search our weather history database for the weather conditions in past years. The results will help you decide how hot, cold, wet, or windy it might be!

Date:

Astronomy

Dec. 31, 2012 Rise Set
Actual Time 8:37 AM CET 5:42 PM CET
Civil Twilight 8:05 AM CET 6:14 PM CET
Nautical Twilight 7:29 AM CET 6:50 PM CET
Astronomical Twilight 6:55 AM CET 7:24 PM CET
Moon 9:03 PM CET (12/31) 10:06 AM CET (12/31)
Length of Visible Light 10h 09m
Length of Day
9h 05m
Waning Gibbous, 92% of the Moon is Illuminated
Dec 31
Waning Gibbous
Jan 5
Last Quarter
Jan 11
New
Jan 19
First Quarter
Jan 27
Full

Hourly Weather History & Observations

Time (CET) Temp. Windchill Dew Point Humidity Pressure Visibility Wind Dir Wind Speed Gust Speed Precip Events Conditions
12:00 AM 33.8 °F - 33.8 °F 100% 30.42 in 4.3 mi Calm Calm - N/A   Partly Cloudy
5:30 AM 30.2 °F - 30.2 °F 100% 30.33 in 3.1 mi Calm Calm - N/A Fog Partly Cloudy
6:00 AM 28.4 °F - 28.4 °F 100% 30.33 in 2.2 mi NW 2.3 mph - N/A Fog Partly Cloudy
6:05 AM 28.4 °F 24.6 °F 28.4 °F 100% 30.33 in 0.1 mi NW 3.5 mph - N/A Fog Light Freezing Fog
6:30 AM 28.4 °F - 28.4 °F 100% 30.30 in 0.1 mi NW 2.3 mph - N/A Fog Light Freezing Fog
7:00 AM 28.4 °F - 28.4 °F 100% 30.30 in 0.1 mi Variable 1.2 mph - N/A Fog Light Freezing Fog
7:30 AM 28.4 °F - 28.4 °F 100% 30.30 in 0.1 mi Calm Calm - N/A Fog Light Freezing Fog
8:00 AM 28.4 °F - 28.4 °F 100% 30.30 in 0.1 mi WNW 1.2 mph - N/A Fog Light Freezing Fog
8:30 AM 28.4 °F - 28.4 °F 100% 30.30 in 0.1 mi Calm Calm - N/A Fog Light Freezing Fog
9:00 AM 28.4 °F - 28.4 °F 100% 30.30 in 0.1 mi Calm Calm - N/A Fog Light Freezing Fog
9:30 AM 30.2 °F - 30.2 °F 100% 30.30 in 0.1 mi Calm Calm - N/A Fog Light Freezing Fog
10:00 AM 30.2 °F - 30.2 °F 100% 30.30 in 0.2 mi Calm Calm - N/A Fog Light Freezing Fog
10:30 AM 30.2 °F - 30.2 °F 100% 30.27 in 0.3 mi Variable 1.2 mph - N/A Fog Light Freezing Fog
10:50 AM 32.0 °F - 32.0 °F 100% 30.27 in 0.6 mi Variable 1.2 mph - N/A Fog Light Freezing Fog
11:00 AM 32.0 °F - 32.0 °F 100% 30.27 in 0.2 mi Calm Calm - N/A Fog Light Freezing Fog
11:12 AM 32.0 °F - 32.0 °F 100% 30.27 in 0.9 mi Variable 1.2 mph - N/A Fog Patches of Fog
11:30 AM 33.8 °F 30.8 °F 33.8 °F 100% 30.27 in 0.6 mi WNW 3.5 mph - N/A Fog Patches of Fog
11:40 AM 33.8 °F 30.8 °F 33.8 °F 100% 30.27 in 4.3 mi NW 3.5 mph - N/A Fog Patches of Fog
12:00 PM 37.4 °F - 37.4 °F 100% 30.24 in 6.2 mi Variable 2.3 mph - N/A Fog Patches of Fog
12:30 PM 39.2 °F - 39.2 °F 100% 30.24 in 6.2 mi Variable 2.3 mph - N/A Fog Patches of Fog
1:00 PM 42.8 °F - 41.0 °F 93% 30.21 in 6.2 mi Variable 1.2 mph - N/A   Scattered Clouds
1:30 PM 44.6 °F - 39.2 °F 81% 30.18 in 6.2 mi Calm Calm - N/A   Scattered Clouds
2:00 PM 48.2 °F - 39.2 °F 71% 30.15 in 6.2 mi Variable 2.3 mph - N/A   Scattered Clouds
2:30 PM 50.0 °F - 39.2 °F 66% 30.15 in 6.2 mi SSW 12.7 mph - N/A   Scattered Clouds
3:00 PM 48.2 °F - 39.2 °F 71% 30.12 in 6.2 mi South 12.7 mph - N/A   Scattered Clouds
3:30 PM 48.2 °F - 39.2 °F 71% 30.12 in 6.2 mi South 11.5 mph - N/A   Scattered Clouds
4:00 PM 48.2 °F - 39.2 °F 71% 30.12 in 6.2 mi South 9.2 mph - N/A   Scattered Clouds
5:00 PM 46.4 °F 41.5 °F 37.4 °F 71% 30.09 in 6.2 mi South 10.4 mph - N/A   Partly Cloudy
5:30 PM 46.4 °F 42.9 °F 37.4 °F 71% 30.06 in 6.2 mi South 6.9 mph - N/A   Partly Cloudy
6:00 PM 44.6 °F 43.1 °F 37.4 °F 76% 30.06 in 6.2 mi South 3.5 mph - N/A   Partly Cloudy
6:30 PM 42.8 °F - 37.4 °F 81% 30.06 in 6.2 mi Variable 1.2 mph - N/A   Partly Cloudy
7:00 PM 42.8 °F - 37.4 °F 81% 30.06 in 6.2 mi Variable 2.3 mph - N/A   Partly Cloudy
7:30 PM 42.8 °F - 37.4 °F 81% 30.06 in 6.2 mi NNE 1.2 mph - N/A   Partly Cloudy
8:00 PM 42.8 °F - 39.2 °F 87% 30.06 in 6.2 mi NE 1.2 mph - N/A   Partly Cloudy
8:30 PM 42.8 °F - 37.4 °F 81% 30.06 in 6.2 mi Variable 1.2 mph - N/A   Partly Cloudy
9:00 PM 42.8 °F - 39.2 °F 87% 30.06 in 6.2 mi Variable 1.2 mph - N/A Rain Rain
9:30 PM 42.8 °F 41.1 °F 41.0 °F 93% 30.04 in 6.2 mi ENE 3.5 mph - N/A Rain Rain
10:00 PM 41.0 °F - 41.0 °F 100% 30.04 in 6.2 mi Variable 2.3 mph - N/A   Scattered Clouds
10:30 PM 42.8 °F 40.1 °F 41.0 °F 93% 30.04 in 6.2 mi NW 4.6 mph - N/A   Scattered Clouds
11:00 PM 42.8 °F 41.1 °F 39.2 °F 87% 30.04 in 6.2 mi North 3.5 mph - N/A Rain Rain
11:30 PM 42.8 °F 41.1 °F 41.0 °F 93% 30.04 in 6.2 mi North 3.5 mph - N/A Rain Rain